QPF
0.00 0.00 0.00 0.00 0.00 0.00 0.00 0.00 0.00 0.00 0.00 0.00 0.00 0.00 0.00 0.00 0.00 0.00 0.00 0.00 0.00 0.00 0.00 0.00 0.01 0.02 0.03 0.04 0.06 0.07 0.07 0.07 0.08 0.08 0.08 0.08 0.07 0.06 0.05 0.03 0.02 0.02 0.02
0.00 0.00 0.00 0.00 0.00 0.00 0.00 0.00 0.00 0.00 0.00 0.00 0.00 0.00 0.00 0.00 0.00 0.00 0.00 0.00 0.00 0.00 0.00 0.00 0.01 0.02 0.03 0.03 0.04 0.04 0.05 0.05 0.07 0.08 0.09 0.10 0.10 0.11 0.10 0.09 0.08 0.06 0.05
0.00 0.00 0.00 0.00 0.00 0.00 0.00 0.00 0.00 0.00 0.00 0.00 0.00 0.00 0.00 0.00 0.00 0.00 0.00 0.00 0.00 0.00 0.00 0.00 0.01 0.01 0.01 0.01 0.02 0.02 0.02 0.03 0.03 0.05 0.07 0.09 0.11 0.12 0.13 0.13 0.14 0.14 0.13
0.00 0.00 0.00 0.00 0.00 0.00 0.00 0.00 0.00 0.00 0.00 0.00 0.00 0.00 0.00 0.00 0.00 0.00 0.00 0.00 0.00 0.00 0.00 0.00 0.00 0.00 0.00 0.01 0.01 0.01 0.01 0.02 0.02 0.03 0.04 0.05 0.08 0.10 0.13 0.14 0.16 0.17 0.18
0.00 0.00 0.00 0.00 0.00 0.00 0.00 0.00 0.00 0.00 0.00 0.00 0.00 0.00 0.00 0.00 0.00 0.00 0.00 0.00 0.00 0.00 0.00 0.00 0.00 0.00 0.00 0.00 0.00 0.00 0.01 0.02 0.02 0.03 0.03 0.03 0.04 0.06 0.08 0.11 0.14 0.17 0.19
0.00 0.00 0.00 0.00 0.00 0.00 0.00 0.00 0.00 0.00 0.00 0.00 0.00 0.00 0.00 0.00 0.00 0.00 0.00 0.00 0.00 0.00 0.00 0.00 0.00 0.00 0.00 0.00 0.00 0.00 0.00 0.00 0.01 0.01 0.01 0.02 0.02 0.03 0.04 0.06 0.09 0.12 0.16
0.00 0.00 0.00 0.00 0.00 0.00 0.00 0.00 0.00 0.00 0.00 0.00 0.00 0.00 0.00 0.00 0.00 0.00 0.00 0.00 0.00 0.00 0.00 0.00 0.00 0.00 0.00 0.00 0.00 0.00 0.00 0.00 0.00 0.00 0.00 0.00 0.00 0.01 0.02 0.03 0.05 0.07 0.10
0.00 0.00 0.00 0.00 0.00 0.00 0.00 0.00 0.00 0.00 0.00 0.00 0.00 0.00 0.00 0.00 0.00 0.00 0.00 0.00 0.00 0.00 0.00 0.00 0.00 0.00 0.00 0.00 0.00 0.00 0.00 0.00 0.00 0.00 0.00 0.00 0.00 0.00 0.01 0.01 0.02 0.04 0.06
0.00 0.00 0.00 0.00 0.00 0.00 0.00 0.00 0.00 0.00 0.00 0.00 0.00 0.00 0.00 0.00 0.00 0.00 0.00 0.00 0.00 0.00 0.00 0.00 0.00 0.00 0.00 0.00 0.00 0.00 0.00 0.00 0.00 0.00 0.00 0.00 0.00 0.01 0.01 0.01 0.02 0.03 0.03
0.00 0.00 0.00 0.00 0.00 0.00 0.00 0.00 0.00 0.00 0.00 0.00 0.00 0.00 0.00 0.00 0.00 0.00 0.00 0.00 0.00 0.00 0.00 0.00 0.00 0.00 0.00 0.00 0.00 0.00 0.00 0.00 0.00 0.00 0.00 0.00 0.01 0.01 0.01 0.02 0.02 0.03 0.03
0.00 0.00 0.00 0.00 0.00 0.00 0.00 0.00 0.00 0.00 0.00 0.00 0.00 0.00 0.00 0.00 0.00 0.00 0.00 0.00 0.00 0.00 0.00 0.00 0.00 0.00 0.00 0.00 0.00 0.00 0.00 0.00 0.00 0.00 0.00 0.00 0.00 0.01 0.02 0.02 0.03 0.03 0.04
0.00 0.00 0.00 0.00 0.00 0.00 0.00 0.00 0.00 0.00 0.00 0.00 0.00 0.00 0.00 0.00 0.00 0.00 0.00 0.00 0.00 0.00 0.00 0.00 0.00 0.00 0.00 0.00 0.00 0.00 0.00 0.00 0.00 0.00 0.00 0.00 0.01 0.01 0.02 0.03 0.03 0.03 0.03
0.00 0.00 0.00 0.00 0.00 0.00 0.00 0.00 0.00 0.00 0.00 0.00 0.00 0.00 0.00 0.00 0.00 0.00 0.00 0.00 0.00 0.00 0.00 0.00 0.00 0.00 0.00 0.00 0.00 0.00 0.00 0.00 0.00 0.00 0.00 0.01 0.01 0.01 0.02 0.02 0.03 0.03 0.03
0.00 0.00 0.00 0.00 0.00 0.00 0.00 0.00 0.00 0.00 0.00 0.00 0.00 0.00 0.00 0.00 0.00 0.00 0.00 0.00 0.00 0.00 0.00 0.00 0.00 0.00 0.00 0.00 0.00 0.00 0.00 0.00 0.00 0.00 0.00 0.01 0.01 0.01 0.01 0.01 0.02 0.02 0.03
0.00 0.00 0.00 0.00 0.00 0.00 0.00 0.00 0.00 0.00 0.00 0.00 0.00 0.00 0.00 0.00 0.00 0.00 0.00 0.00 0.00 0.00 0.00 0.00 0.00 0.00 0.00 0.00 0.00 0.00 0.00 0.00 0.00 0.00 0.00 0.01 0.01 0.01 0.02 0.02 0.02 0.02 0.02
0.00 0.00 0.00 0.00 0.00 0.00 0.00 0.00 0.00 0.00 0.00 0.00 0.00 0.00 0.00 0.00 0.00 0.00 0.00 0.00 0.00 0.00 0.00 0.00 0.00 0.00 0.00 0.00 0.00 0.00 0.00 0.00 0.00 0.00 0.00 0.01 0.02 0.02 0.02 0.02 0.02 0.03 0.03
0.00 0.00 0.00 0.00 0.00 0.00 0.00 0.00 0.00 0.00 0.00 0.00 0.00 0.00 0.00 0.00 0.00 0.00 0.00 0.00 0.00 0.00 0.00 0.00 0.00 0.00 0.00 0.00 0.00 0.00 0.00 0.00 0.00 0.00 0.01 0.02 0.02 0.02 0.02 0.02 0.02 0.03 0.03
0.00 0.00 0.00 0.00 0.00 0.00 0.00 0.00 0.00 0.00 0.00 0.00 0.00 0.00 0.00 0.00 0.00 0.00 0.00 0.00 0.00 0.00 0.00 0.00 0.00 0.00 0.00 0.00 0.00 0.00 0.00 0.00 0.00 0.01 0.02 0.02 0.01 0.01 0.01 0.01 0.02 0.03 0.03
0.00 0.00 0.00 0.00 0.00 0.00 0.00 0.00 0.00 0.00 0.00 0.00 0.00 0.00 0.00 0.00 0.00 0.00 0.00 0.00 0.00 0.00 0.00 0.01 0.01 0.00 0.00 0.00 0.00 0.00 0.00 0.00 0.00 0.00 0.00 0.00 0.00 0.01 0.01 0.02 0.02 0.02 0.03
0.00 0.00 0.00 0.00 0.00 0.00 0.00 0.00 0.00 0.00 0.00 0.00 0.00 0.00 0.00 0.00 0.00 0.00 0.00 0.00 0.01 0.01 0.01 0.02 0.02 0.01 0.01 0.00 0.01 0.01 0.01 0.00 0.00 0.00 0.00 0.00 0.00 0.01 0.01 0.01 0.01 0.01 0.01
0.00 0.00 0.00 0.00 0.00 0.00 0.00 0.00 0.00 0.00 0.00 0.00 0.00 0.00 0.00 0.00 0.00 0.00 0.01 0.01 0.01 0.02 0.04 0.05 0.04 0.02 0.01 0.01 0.01 0.01 0.01 0.00 0.00 0.00 0.00 0.00 0.00 0.00 0.00 0.00 0.00 0.00 0.01
0.00 0.00 0.00 0.00 0.00 0.00 0.00 0.00 0.00 0.00 0.00 0.00 0.00 0.00 0.00 0.00 0.00 0.00 0.01 0.01 0.03 0.05 0.07 0.07 0.04 0.02 0.01 0.00 0.01 0.01 0.02 0.03 0.02 0.00 0.01 0.00 0.00 0.00 0.00 0.00 0.01 0.02 0.03
0.00 0.00 0.00 0.00 0.00 0.00 0.00 0.00 0.00 0.00 0.00 0.00 0.00 0.00 0.00 0.00 0.00 0.00 0.00 0.02 0.03 0.05 0.05 0.04 0.03 0.01 0.01 0.01 0.03 0.05 0.04 0.04 0.03 0.00 0.00 0.00 0.00 0.00 0.00 0.00 0.01 0.01 0.02
0.00 0.00 0.00 0.00 0.00 0.00 0.00 0.00 0.00 0.00 0.00 0.00 0.00 0.00 0.00 0.00 0.00 0.01 0.02 0.02 0.02 0.02 0.02 0.01 0.01 0.01 0.02 0.02 0.03 0.05 0.04 0.03 0.01 0.00 0.00 0.01 0.00 0.00 0.00 0.00 0.00 0.01 0.02
0.00 0.00 0.00 0.00 0.00 0.00 0.00 0.00 0.00 0.00 0.00 0.00 0.00 0.00 0.00 0.00 0.01 0.03 0.04 0.05 0.03 0.01 0.01 0.01 0.02 0.01 0.01 0.01 0.01 0.04 0.05 0.05 0.02 0.00 0.00 0.00 0.00 0.00 0.00 0.00 0.00 0.00 0.01
0.00 0.00 0.00 0.00 0.00 0.00 0.00 0.00 0.00 0.00 0.00 0.00 0.00 0.00 0.00 0.01 0.02 0.04 0.05 0.06 0.02 0.01 0.02 0.01 0.00 0.00 0.00 0.00 0.00 0.03 0.08 0.12 0.07 0.03 0.00 0.02 0.02 0.03 0.04 0.01 0.00 0.00 0.01
MSLP
1013.29 1013.42 1013.51 1013.56 1013.60 1013.63 1013.65 1013.67 1013.66 1013.61 1013.51 1013.36 1013.16 1012.94 1012.70 1012.47 1012.26 1012.05 1011.85 1011.63 1011.39 1011.11 1010.80 1010.47 1010.14 1009.84 1009.58 1009.37 1009.22 1009.11 1009.02 1008.93 1008.83 1008.71 1008.57 1008.42 1008.28 1008.15 1008.05 1007.98 1007.95 1007.96 1008.00
1013.30 1013.44 1013.55 1013.65 1013.73 1013.82 1013.89 1013.95 1013.96 1013.91 1013.80 1013.62 1013.39 1013.12 1012.84 1012.58 1012.34 1012.13 1011.93 1011.74 1011.53 1011.29 1011.02 1010.71 1010.39 1010.07 1009.77 1009.49 1009.25 1009.04 1008.84 1008.66 1008.48 1008.29 1008.10 1007.91 1007.72 1007.55 1007.40 1007.27 1007.17 1007.10 1007.06
1013.45 1013.60 1013.74 1013.87 1014.01 1014.14 1014.25 1014.33 1014.35 1014.30 1014.17 1013.95 1013.68 1013.37 1013.06 1012.77 1012.51 1012.29 1012.11 1011.94 1011.77 1011.57 1011.34 1011.07 1010.77 1010.44 1010.11 1009.77 1009.45 1009.14 1008.84 1008.55 1008.28 1008.01 1007.76 1007.51 1007.28 1007.06 1006.85 1006.66 1006.49 1006.33 1006.21
1013.76 1013.92 1014.08 1014.25 1014.42 1014.58 1014.72 1014.81 1014.83 1014.75 1014.59 1014.34 1014.03 1013.69 1013.35 1013.03 1012.75 1012.53 1012.35 1012.19 1012.05 1011.89 1011.70 1011.47 1011.19 1010.87 1010.52 1010.15 1009.76 1009.36 1008.97 1008.59 1008.22 1007.87 1007.55 1007.24 1006.96 1006.69 1006.43 1006.18 1005.93 1005.69 1005.48
1014.21 1014.39 1014.57 1014.76 1014.95 1015.12 1015.26 1015.34 1015.34 1015.24 1015.05 1014.77 1014.43 1014.06 1013.70 1013.36 1013.06 1012.82 1012.63 1012.47 1012.33 1012.19 1012.02 1011.82 1011.57 1011.28 1010.93 1010.54 1010.11 1009.66 1009.19 1008.73 1008.28 1007.86 1007.46 1007.10 1006.76 1006.43 1006.12 1005.81 1005.49 1005.18 1004.88
1014.75 1014.94 1015.14 1015.34 1015.54 1015.71 1015.84 1015.90 1015.87 1015.74 1015.52 1015.22 1014.87 1014.49 1014.11 1013.75 1013.43 1013.16 1012.94 1012.75 1012.59 1012.43 1012.27 1012.08 1011.85 1011.58 1011.25 1010.86 1010.43 1009.95 1009.44 1008.92 1008.41 1007.92 1007.45 1007.02 1006.62 1006.24 1005.88 1005.51 1005.13 1004.76 1004.39
1015.32 1015.52 1015.73 1015.93 1016.13 1016.29 1016.40 1016.42 1016.36 1016.21 1015.97 1015.67 1015.32 1014.95 1014.57 1014.20 1013.86 1013.55 1013.27 1013.02 1012.80 1012.59 1012.40 1012.20 1011.98 1011.73 1011.43 1011.08 1010.66 1010.19 1009.66 1009.11 1008.55 1007.99 1007.47 1006.97 1006.51 1006.07 1005.65 1005.23 1004.81 1004.39 1003.98
1015.85 1016.06 1016.27 1016.48 1016.67 1016.81 1016.89 1016.89 1016.80 1016.64 1016.40 1016.11 1015.78 1015.43 1015.06 1014.70 1014.33 1013.96 1013.61 1013.27 1012.96 1012.67 1012.41 1012.18 1011.95 1011.71 1011.45 1011.13 1010.75 1010.31 1009.79 1009.23 1008.63 1008.03 1007.44 1006.88 1006.35 1005.85 1005.38 1004.92 1004.47 1004.03 1003.60
1016.31 1016.52 1016.74 1016.95 1017.12 1017.24 1017.29 1017.27 1017.16 1016.99 1016.77 1016.51 1016.22 1015.91 1015.57 1015.21 1014.81 1014.38 1013.94 1013.50 1013.07 1012.68 1012.33 1012.03 1011.78 1011.54 1011.31 1011.03 1010.69 1010.28 1009.79 1009.22 1008.61 1007.96 1007.32 1006.70 1006.11 1005.55 1005.04 1004.54 1004.07 1003.62 1003.19
1016.67 1016.89 1017.11 1017.31 1017.47 1017.57 1017.59 1017.54 1017.43 1017.26 1017.07 1016.85 1016.61 1016.34 1016.04 1015.69 1015.27 1014.79 1014.25 1013.70 1013.14 1012.63 1012.18 1011.80 1011.50 1011.25 1011.03 1010.78 1010.48 1010.10 1009.63 1009.07 1008.44 1007.77 1007.08 1006.40 1005.75 1005.15 1004.59 1004.07 1003.60 1003.15 1002.74
1016.96 1017.19 1017.41 1017.60 1017.73 1017.80 1017.79 1017.72 1017.59 1017.44 1017.27 1017.09 1016.91 1016.69 1016.43 1016.09 1015.66 1015.13 1014.51 1013.85 1013.18 1012.55 1011.99 1011.53 1011.17 1010.89 1010.65 1010.42 1010.14 1009.79 1009.33 1008.78 1008.14 1007.43 1006.71 1005.98 1005.29 1004.65 1004.06 1003.52 1003.04 1002.60 1002.21
1017.22 1017.44 1017.65 1017.82 1017.92 1017.95 1017.91 1017.80 1017.66 1017.51 1017.36 1017.22 1017.08 1016.91 1016.69 1016.37 1015.93 1015.36 1014.69 1013.94 1013.17 1012.43 1011.78 1011.23 1010.80 1010.48 1010.22 1009.98 1009.70 1009.35 1008.90 1008.34 1007.69 1006.97 1006.22 1005.46 1004.74 1004.07 1003.46 1002.91 1002.43 1001.99 1001.61
1017.45 1017.67 1017.86 1017.99 1018.06 1018.04 1017.95 1017.81 1017.64 1017.47 1017.33 1017.21 1017.11 1016.98 1016.78 1016.48 1016.05 1015.46 1014.75 1013.94 1013.10 1012.29 1011.55 1010.93 1010.43 1010.05 1009.75 1009.47 1009.18 1008.81 1008.35 1007.78 1007.12 1006.39 1005.62 1004.86 1004.12 1003.44 1002.82 1002.26 1001.77 1001.33 1000.94
1017.68 1017.88 1018.04 1018.13 1018.15 1018.08 1017.93 1017.74 1017.53 1017.34 1017.19 1017.08 1016.98 1016.87 1016.70 1016.42 1015.99 1015.40 1014.67 1013.84 1012.96 1012.09 1011.29 1010.61 1010.05 1009.60 1009.24 1008.92 1008.58 1008.18 1007.69 1007.11 1006.44 1005.70 1004.94 1004.18 1003.45 1002.77 1002.14 1001.58 1001.08 1000.62 1000.21
1017.89 1018.07 1018.19 1018.23 1018.19 1018.06 1017.85 1017.60 1017.35 1017.12 1016.95 1016.82 1016.72 1016.62 1016.45 1016.18 1015.77 1015.18 1014.46 1013.62 1012.72 1011.82 1010.99 1010.25 1009.64 1009.13 1008.70 1008.31 1007.90 1007.46 1006.93 1006.32 1005.64 1004.91 1004.16 1003.41 1002.70 1002.03 1001.42 1000.86 1000.34 999.86 999.42
1018.07 1018.21 1018.29 1018.28 1018.18 1017.98 1017.71 1017.41 1017.10 1016.83 1016.62 1016.47 1016.36 1016.24 1016.07 1015.80 1015.39 1014.82 1014.11 1013.28 1012.38 1011.48 1010.62 1009.85 1009.17 1008.60 1008.10 1007.63 1007.16 1006.65 1006.07 1005.44 1004.75 1004.02 1003.28 1002.56 1001.87 1001.23 1000.63 1000.06 999.53 999.03 998.54
1018.19 1018.30 1018.32 1018.26 1018.10 1017.84 1017.52 1017.16 1016.81 1016.50 1016.25 1016.07 1015.92 1015.78 1015.59 1015.31 1014.90 1014.34 1013.64 1012.82 1011.94 1011.04 1010.17 1009.37 1008.65 1008.01 1007.43 1006.88 1006.34 1005.76 1005.13 1004.46 1003.76 1003.03 1002.31 1001.61 1000.94 1000.32 999.73 999.16 998.62 998.09 997.56
1018.25 1018.31 1018.29 1018.18 1017.97 1017.66 1017.29 1016.90 1016.51 1016.16 1015.87 1015.65 1015.46 1015.28 1015.06 1014.76 1014.34 1013.78 1013.08 1012.28 1011.41 1010.52 1009.65 1008.82 1008.06 1007.36 1006.71 1006.09 1005.46 1004.82 1004.14 1003.44 1002.71 1001.98 1001.26 1000.57 999.91 999.29 998.70 998.14 997.58 997.02 996.47
1018.26 1018.28 1018.21 1018.05 1017.80 1017.45 1017.05 1016.62 1016.20 1015.82 1015.50 1015.23 1015.00 1014.78 1014.52 1014.18 1013.73 1013.16 1012.47 1011.67 1010.82 1009.93 1009.05 1008.20 1007.41 1006.66 1005.95 1005.26 1004.57 1003.87 1003.14 1002.40 1001.65 1000.90 1000.17 999.47 998.80 998.17 997.57 996.98 996.40 995.83 995.27
1018.24 1018.22 1018.11 1017.91 1017.62 1017.24 1016.82 1016.36 1015.92 1015.51 1015.15 1014.84 1014.56 1014.28 1013.97 1013.58 1013.10 1012.51 1011.81 1011.02 1010.16 1009.28 1008.41 1007.55 1006.73 1005.95 1005.19 1004.45 1003.71 1002.96 1002.19 1001.41 1000.62 999.85 999.09 998.36 997.66 996.99 996.35 995.73 995.12 994.53 993.95
1018.22 1018.16 1018.01 1017.77 1017.45 1017.05 1016.60 1016.13 1015.66 1015.23 1014.83 1014.47 1014.14 1013.80 1013.42 1012.98 1012.46 1011.84 1011.12 1010.33 1009.48 1008.61 1007.74 1006.88 1006.05 1005.25 1004.46 1003.69 1002.91 1002.13 1001.33 1000.52 999.70 998.89 998.09 997.31 996.55 995.81 995.10 994.42 993.76 993.13 992.54
1018.22 1018.13 1017.94 1017.67 1017.32 1016.89 1016.42 1015.93 1015.43 1014.96 1014.52 1014.11 1013.71 1013.31 1012.87 1012.37 1011.80 1011.15 1010.42 1009.62 1008.78 1007.92 1007.06 1006.22 1005.39 1004.58 1003.79 1003.00 1002.21 1001.40 1000.59 999.75 998.91 998.06 997.20 996.35 995.51 994.69 993.88 993.11 992.37 991.68 991.06
1018.25 1018.12 1017.90 1017.60 1017.21 1016.76 1016.26 1015.74 1015.21 1014.70 1014.21 1013.73 1013.27 1012.80 1012.29 1011.74 1011.13 1010.45 1009.70 1008.91 1008.09 1007.25 1006.41 1005.58 1004.77 1003.97 1003.18 1002.39 1001.60 1000.79 999.97 999.12 998.25 997.36 996.45 995.52 994.59 993.65 992.73 991.84 991.00 990.22 989.54
1018.29 1018.13 1017.88 1017.54 1017.12 1016.64 1016.10 1015.54 1014.97 1014.41 1013.87 1013.33 1012.80 1012.27 1011.70 1011.10 1010.45 1009.75 1009.00 1008.22 1007.42 1006.60 1005.79 1004.98 1004.19 1003.41 1002.63 1001.85 1001.07 1000.26 999.44 998.59 997.70 996.77 995.81 994.81 993.78 992.72 991.67 990.64 989.67 988.77 987.99
1018.31 1018.12 1017.83 1017.46 1017.00 1016.48 1015.92 1015.32 1014.71 1014.09 1013.49 1012.90 1012.31 1011.71 1011.10 1010.45 1009.78 1009.07 1008.33 1007.57 1006.79 1006.00 1005.22 1004.44 1003.66 1002.89 1002.12 1001.35 1000.57 999.77 998.95 998.09 997.19 996.24 995.23 994.17 993.04 991.88 990.70 989.52 988.40 987.36 986.45
1018.28 1018.05 1017.73 1017.32 1016.83 1016.28 1015.67 1015.04 1014.39 1013.74 1013.09 1012.45 1011.81 1011.16 1010.51 1009.84 1009.16 1008.45 1007.72 1006.98 1006.23 1005.47 1004.71 1003.94 1003.18 1002.41 1001.64 1000.86 1000.07 999.27 998.44 997.58 996.67 995.70 994.66 993.54 992.35 991.09 989.79 988.48 987.21 986.02 984.95
Thickness
5688 5685 5682 5680 5677 5676 5674 5672 5669 5667 5665 5663 5661 5659 5658 5656 5655 5655 5654 5655 5655 5655 5655 5656 5657 5657 5657 5657 5657 5657 5656 5656 5656 5656 5656 5657 5657 5656 5656 5656 5656 5656 5656
5683 5679 5675 5672 5669 5668 5666 5663 5661 5658 5656 5654 5652 5651 5650 5649 5647 5647 5646 5646 5645 5645 5645 5646 5646 5646 5646 5646 5646 5647 5647 5647 5647 5648 5648 5648 5649 5649 5650 5650 5651 5651 5651
5675 5671 5666 5662 5660 5658 5657 5655 5652 5650 5647 5645 5643 5643 5642 5640 5639 5638 5636 5635 5634 5633 5632 5632 5632 5632 5632 5632 5633 5633 5634 5634 5634 5635 5636 5637 5638 5639 5640 5641 5642 5643 5644
5666 5662 5657 5653 5650 5649 5647 5644 5640 5638 5634 5632 5632 5632 5632 5631 5629 5628 5626 5624 5622 5621 5619 5618 5617 5616 5617 5617 5617 5618 5618 5618 5619 5619 5620 5622 5623 5625 5627 5629 5630 5632 5633
5656 5652 5647 5644 5641 5639 5635 5633 5628 5625 5622 5621 5621 5623 5623 5621 5619 5617 5615 5612 5610 5608 5606 5604 5602 5601 5601 5601 5601 5600 5601 5601 5601 5602 5603 5604 5606 5609 5611 5613 5615 5617 5619
5647 5643 5638 5634 5631 5627 5623 5620 5616 5614 5611 5609 5611 5612 5612 5611 5609 5606 5603 5601 5598 5596 5592 5590 5588 5587 5585 5583 5581 5581 5581 5582 5583 5584 5585 5587 5588 5590 5593 5595 5598 5600 5603
5636 5632 5627 5622 5618 5614 5609 5606 5604 5600 5598 5596 5595 5596 5599 5600 5598 5595 5592 5588 5584 5580 5576 5573 5569 5567 5564 5562 5560 5559 5559 5560 5561 5563 5565 5566 5568 5571 5573 5576 5579 5582 5584
5625 5620 5615 5610 5605 5601 5597 5593 5589 5586 5582 5581 5578 5578 5580 5584 5584 5583 5578 5573 5568 5563 5559 5555 5551 5548 5545 5544 5541 5540 5539 5539 5540 5541 5542 5544 5546 5548 5551 5555 5558 5561 5564
5613 5608 5603 5597 5592 5588 5583 5579 5575 5572 5568 5566 5563 5561 5557 5557 5564 5570 5568 5561 5554 5548 5543 5539 5536 5531 5527 5525 5523 5521 5519 5518 5519 5519 5520 5521 5523 5524 5527 5530 5533 5537 5540
5601 5596 5590 5585 5580 5575 5571 5567 5563 5560 5556 5552 5549 5545 5539 5534 5532 5541 5550 5546 5540 5534 5528 5524 5518 5513 5509 5506 5502 5499 5497 5496 5495 5495 5496 5497 5498 5499 5501 5503 5506 5509 5512
5589 5584 5579 5573 5568 5563 5559 5555 5551 5547 5544 5539 5535 5531 5527 5520 5513 5507 5517 5522 5521 5517 5512 5507 5501 5495 5490 5485 5480 5477 5473 5470 5469 5468 5468 5468 5468 5469 5470 5472 5475 5477 5480
5577 5572 5567 5562 5557 5553 5549 5545 5540 5536 5531 5526 5521 5516 5510 5504 5500 5494 5496 5500 5499 5497 5493 5488 5483 5476 5468 5461 5455 5449 5445 5442 5439 5437 5436 5435 5434 5434 5434 5436 5438 5440 5443
5565 5560 5556 5552 5547 5543 5539 5535 5530 5525 5519 5513 5507 5501 5494 5487 5481 5475 5474 5480 5483 5483 5477 5470 5461 5451 5441 5433 5425 5417 5413 5408 5405 5403 5401 5399 5398 5397 5396 5396 5399 5402 5405
5556 5551 5546 5542 5537 5533 5529 5524 5518 5513 5507 5500 5494 5486 5479 5471 5464 5457 5451 5451 5459 5469 5463 5454 5443 5430 5417 5405 5395 5387 5380 5373 5370 5367 5366 5365 5364 5363 5363 5364 5366 5368 5371
5547 5541 5536 5532 5527 5522 5517 5512 5505 5500 5493 5486 5479 5471 5464 5457 5450 5442 5434 5425 5420 5430 5447 5439 5422 5410 5393 5379 5367 5357 5348 5341 5337 5336 5335 5335 5335 5336 5336 5338 5340 5342 5344
5536 5531 5526 5521 5516 5511 5505 5499 5493 5487 5479 5472 5465 5458 5450 5443 5435 5426 5417 5407 5395 5389 5403 5416 5401 5386 5371 5354 5339 5328 5318 5312 5310 5309 5310 5312 5314 5314 5315 5316 5317 5319 5321
5526 5521 5516 5510 5505 5499 5493 5487 5480 5474 5466 5458 5451 5444 5436 5428 5419 5409 5399 5388 5376 5361 5359 5376 5371 5359 5345 5333 5322 5309 5298 5291 5290 5290 5291 5292 5294 5294 5295 5296 5298 5299 5302
5515 5510 5504 5499 5493 5487 5480 5473 5467 5460 5452 5445 5437 5428 5420 5411 5400 5389 5378 5366 5354 5339 5325 5327 5335 5328 5320 5311 5304 5296 5288 5280 5275 5275 5275 5276 5276 5277 5278 5280 5282 5284 5287
5504 5498 5493 5487 5480 5474 5467 5461 5454 5447 5440 5431 5422 5412 5402 5391 5381 5369 5356 5343 5331 5319 5303 5292 5296 5297 5296 5290 5284 5281 5276 5270 5265 5263 5262 5262 5262 5263 5265 5267 5269 5272 5276
5493 5487 5481 5474 5467 5461 5455 5449 5442 5436 5427 5417 5406 5394 5382 5370 5357 5345 5333 5320 5306 5294 5284 5275 5273 5274 5273 5269 5262 5262 5265 5262 5258 5253 5252 5252 5253 5254 5255 5256 5260 5263 5266
5481 5474 5468 5461 5454 5448 5442 5437 5431 5424 5413 5402 5389 5376 5362 5348 5334 5319 5305 5293 5280 5271 5264 5259 5257 5256 5255 5250 5248 5248 5251 5254 5254 5247 5247 5248 5246 5247 5248 5250 5253 5256 5260
5468 5461 5454 5447 5440 5434 5430 5424 5418 5409 5397 5383 5370 5357 5342 5327 5311 5298 5283 5271 5261 5252 5246 5242 5241 5239 5239 5237 5238 5240 5241 5245 5252 5246 5241 5247 5242 5246 5248 5249 5253 5256 5260
5456 5448 5441 5434 5427 5421 5417 5410 5402 5392 5377 5362 5347 5333 5320 5304 5288 5275 5268 5260 5251 5242 5234 5229 5229 5229 5230 5231 5232 5235 5236 5237 5240 5241 5238 5247 5245 5246 5249 5252 5256 5260 5263
5443 5435 5428 5421 5414 5407 5402 5394 5385 5373 5358 5343 5326 5309 5294 5283 5270 5260 5255 5248 5241 5234 5228 5225 5224 5226 5227 5228 5228 5230 5232 5236 5238 5236 5234 5240 5246 5249 5253 5256 5259 5263 5267
5430 5422 5415 5408 5400 5392 5384 5376 5367 5355 5342 5327 5309 5290 5273 5263 5256 5249 5243 5238 5234 5230 5227 5225 5225 5225 5227 5227 5227 5228 5230 5231 5236 5239 5236 5237 5245 5250 5256 5262 5267 5271 5273
5418 5411 5403 5395 5386 5376 5367 5358 5345 5334 5324 5313 5298 5279 5263 5252 5246 5241 5235 5231 5228 5229 5229 5228 5227 5227 5227 5228 5228 5225 5224 5227 5231 5237 5240 5238 5244 5248 5262 5272 5275 5275 5276